Find Starlink 36899

NORAD ID: 68058 Int'l Des: 2026-041 Owner: SPXS Country: US Constellation: starlink operational
LEOCIRCULAR

Live-Position

3D-Globus wird geladen...

Über Starlink 36899

Beschreibung wird geladen...

Nächste Überflüge

Passes for default location (London). Set your location on the main map for personalized predictions.

Höhenverlauf

Loading altitude history...

Zweizeiliger Elementsatz

1 68058U 26041U 26106.76181647 .00051814 00000-0 93254-3 0 9990
2 68058 53.1606 234.0227 0000711 62.5985 297.5096 15.49338472 7207
Epoch: 16. Apr. 2026 • Age: 16 hours

Aktueller Status

Höhe 420.5 km
Geschwindigkeit 7.66 km/s
Subsatellitenpunkt -5.51°S, 50.81°E
Startdatum 2. März 2026
Alter 0.1 years
Typ internet

Technische Details

Klassifizierung Payload
Masse 575.00 kg
Trockenmasse 530.00 kg
Gesamtmasse 575.00 kg
Länge 0.30 m
Durchmesser 4.10 m
Spannweite 29.00 m
Form Box + pan
Hersteller SPXS
Bus-Typ Starlink V2MO
Phasenstatus In Orbit
Besitzer/Staat SPXS/US

Most Searched